Date String (YYYY-MM-DD hh:mm:ss) UTC,Instrument flags,absolute air pressure of the measurement (hPa),sample flow rate (lpm),inlet stack bypass flow (lpm),air temperature of the measurement (°C),ambient temperature measured by the external sensor (°C),aerosol sample conditioner tube jacket temperature (°C),OPC LED temperature (°C),internal box temperature (°C),relative humidity of the measurement (%),span deviation,mass concentration of particles derived from Lorenz-Mie calculation of OPC scattering (μg/m³),mass concentration of particles derived from Lorenz-Mie calculation of OPC scattering (μg/m³),mass concentration of particles derived from Lorenz-Mie calculation of OPC scattering (μg/m³)
DateTimeUTC,F1_M11,P_M11,Q1_M11,Q2_M11,T1_M11,T2_M11,T3_M11,T4_M11,T5_M11,U1_M11,ZSPAN_M11,X0_M11,X2_M11,X1_M11
2024-04-21 04:00:00,SystemResetWarning,0838.2,5.01,000.00,019.4,018.8,000.0,027.9,021.1,022.9,0002.3,0009.45,0007.21,0006.88
2024-04-21 04:01:00,SystemResetWarning,0838.2,5.00,000.00,019.4,018.8,000.0,027.9,021.1,022.9,0002.3,0009.46,0007.21,0006.88
2024-04-21 04:02:00,SystemResetWarning,0838.1,5.01,000.00,019.4,018.8,000.0,027.9,021.2,022.9,0002.1,0009.45,0007.20,0006.87
2024-04-21 04:03:00,SystemResetWarning,0838.1,5.00,000.00,019.4,018.8,000.0,027.9,021.1,022.9,0001.7,0009.40,0007.18,0006.86
2024-04-21 04:04:00,SystemResetWarning,0838.0,4.99,000.00,019.4,018.8,000.0,027.9,021.1,022.9,0001.6,0009.36,0007.16,0006.85
2024-04-21 04:05:00,SystemResetWarning,0838.0,4.99,000.00,019.4,018.8,000.0,027.9,021.1,023.0,0001.5,0009.30,0007.12,0006.83
2024-04-21 04:06:00,SystemResetWarning,0838.0,4.99,000.00,019.4,018.8,000.0,027.9,021.1,023.0,0001.4,0009.26,0007.09,0006.80
2024-04-21 04:07:00,SystemResetWarning,0838.1,5.00,000.00,019.4,018.8,000.0,027.9,021.1,023.0,0000.9,0009.29,0007.09,0006.79
2024-04-21 04:08:00,SystemResetWarning,0838.1,5.01,000.00,019.4,018.8,000.0,027.9,021.2,023.0,0001.0,0009.39,0007.14,0006.81
2024-04-21 04:09:00,SystemResetWarning,0838.1,5.00,000.00,019.4,018.8,000.0,027.9,021.2,023.0,0001.3,0009.42,0007.16,0006.82
2024-04-21 04:10:00,SystemResetWarning,0838.1,5.00,000.00,019.4,018.8,000.0,027.9,021.2,023.0,0001.1,0009.51,0007.21,0006.84
2024-04-21 04:11:00,SystemResetWarning,0838.0,5.01,000.00,019.4,018.8,000.0,027.9,021.2,023.2,0001.2,0009.48,0007.20,0006.85
2024-04-21 04:12:00,SystemResetWarning,0837.9,4.99,000.00,019.4,018.8,000.0,027.9,021.2,024.1,0001.1,0009.43,0007.20,0006.86
2024-04-21 04:13:00,SystemResetWarning,0838.0,4.99,000.00,019.4,018.8,000.0,027.9,021.2,023.7,0001.4,0009.45,0007.22,0006.88
2024-04-21 04:14:00,SystemResetWarning,0837.9,5.00,000.00,019.4,018.8,000.0,027.9,021.1,023.3,0001.5,0009.54,0007.27,0006.91
2024-04-21 04:15:00,SystemResetWarning,0838.0,5.01,000.00,019.4,018.8,000.0,027.9,021.1,023.2,0001.1,0009.58,0007.29,0006.92
2024-04-21 04:16:00,SystemResetWarning,0838.0,4.99,000.00,019.4,018.8,000.0,027.9,021.2,023.2,0001.1,0009.58,0007.30,0006.92
2024-04-21 04:17:00,SystemResetWarning,0838.0,4.98,000.00,019.4,018.8,000.0,027.9,021.2,023.2,0001.1,0009.63,0007.32,0006.94
2024-04-21 04:18:00,SystemResetWarning,0838.0,5.01,000.00,019.4,018.8,000.0,027.9,021.2,023.2,0001.2,0009.66,0007.31,0006.94
2024-04-21 04:19:00,SystemResetWarning,0838.0,5.02,000.00,019.4,018.9,000.0,027.9,021.2,023.1,0001.4,0009.88,0007.28,0006.94
2024-04-21 04:20:00,SystemResetWarning,0838.0,5.00,000.00,019.4,018.9,000.0,027.9,021.2,023.1,0001.5,0009.89,0007.27,0006.94
2024-04-21 04:21:00,SystemResetWarning,0838.0,5.00,000.00,019.4,018.9,000.0,027.9,021.1,023.1,0001.6,0010.03,0007.22,0006.92
2024-04-21 04:22:00,SystemResetWarning,0838.0,4.99,000.00,019.4,018.9,000.0,027.9,021.2,023.1,0001.8,0010.62,0007.23,0006.92
2024-04-21 04:23:00,SystemResetWarning,0838.0,5.00,000.00,019.4,018.9,000.0,027.9,021.2,023.1,0001.8,0010.68,0007.27,0006.93
2024-04-21 04:24:00,SystemResetWarning,0838.0,5.00,000.00,019.4,018.9,000.0,027.9,021.2,023.1,0001.6,0010.71,0007.28,0006.94
2024-04-21 04:25:00,SystemResetWarning,0838.0,5.01,000.00,019.4,018.9,000.0,027.9,021.2,023.1,0001.6,0010.77,0007.31,0006.95
2024-04-21 04:26:00,SystemResetWarning,0838.0,5.00,000.00,019.4,018.9,000.0,027.9,021.2,023.1,0002.0,0010.83,0007.33,0006.97
2024-04-21 04:27:00,SystemResetWarning,0838.0,5.00,000.00,019.4,018.9,000.0,027.9,021.2,023.1,0002.1,0010.89,0007.37,0006.98
2024-04-21 04:28:00,SystemResetWarning,0837.9,4.99,000.00,019.4,018.9,000.0,027.9,021.2,023.1,0002.3,0010.86,0007.38,0007.00
2024-04-21 04:29:00,SystemResetWarning,0837.8,5.00,000.00,019.4,018.9,000.0,027.9,021.2,023.1,0002.4,0010.83,0007.40,0007.01
2024-04-21 04:30:00,SystemResetWarning,0837.8,5.00,000.00,019.4,018.9,000.0,027.9,021.2,023.1,0002.2,0010.55,0007.42,0007.03
2024-04-21 04:31:00,SystemResetWarning,0837.9,5.00,000.00,019.4,018.9,000.0,027.9,021.2,023.1,0002.1,0010.54,0007.44,0007.04
2024-04-21 04:32:00,SystemResetWarning,0838.0,5.00,000.00,019.4,018.9,000.0,027.9,021.2,023.1,0002.0,0010.44,0007.48,0007.07
2024-04-21 04:33:00,SystemResetWarning,0838.0,5.00,000.00,019.4,018.9,000.0,027.9,021.2,023.1,0001.7,0009.88,0007.47,0007.08
2024-04-21 04:34:00,SystemResetWarning,0838.0,4.99,000.00,019.4,018.9,000.0,027.9,021.2,023.1,0001.7,0009.89,0007.45,0007.08
2024-04-21 04:35:00,SystemResetWarning,0838.0,5.00,000.00,019.4,018.9,000.0,027.9,021.2,023.1,0001.9,0009.86,0007.44,0007.07
2024-04-21 04:36:00,SystemResetWarning,0838.0,5.01,000.00,019.4,018.9,000.0,027.9,021.2,023.2,0001.5,0009.76,0007.40,0007.06
2024-04-21 04:37:00,SystemResetWarning,0838.0,5.01,000.00,019.4,018.9,000.0,027.9,021.2,023.1,0001.3,0009.74,0007.40,0007.06
2024-04-21 04:38:00,SystemResetWarning,0838.0,5.01,000.00,019.4,018.9,000.0,027.9,021.2,023.2,0001.4,0009.68,0007.37,0007.06
2024-04-21 04:39:00,SystemResetWarning,0837.9,4.99,000.00,019.4,018.9,000.0,027.9,021.2,023.2,0001.4,0009.65,0007.35,0007.05
2024-04-21 04:40:00,SystemResetWarning,0838.0,4.99,000.00,019.4,018.9,000.0,027.9,021.2,023.2,0000.9,0009.68,0007.36,0007.03
2024-04-21 04:41:00,SystemResetWarning,0838.1,4.99,000.00,019.4,018.9,000.0,027.9,021.2,023.2,0000.7,0009.66,0007.33,0007.01
2024-04-21 04:42:00,SystemResetWarning,0838.2,5.00,000.00,019.4,018.9,000.0,027.9,021.2,023.3,0000.6,0009.67,0007.33,0006.99
2024-04-21 04:43:00,SystemResetWarning,0838.2,5.00,000.00,019.4,018.9,000.0,027.9,021.2,023.2,0000.8,0009.59,0007.30,0006.98
2024-04-21 04:44:00,SystemResetWarning,0838.2,5.00,000.00,019.4,018.9,000.0,027.9,021.2,023.2,0001.3,0009.51,0007.28,0006.96
2024-04-21 04:45:00,SystemResetWarning,0838.1,5.01,000.00,019.4,018.9,000.0,027.9,021.2,023.2,0001.2,0009.47,0007.28,0006.95
2024-04-21 04:46:00,SystemResetWarning,0838.1,5.00,000.00,019.4,018.9,000.0,027.9,021.2,023.2,0001.3,0009.58,0007.31,0006.96
2024-04-21 04:47:00,SystemResetWarning,0838.1,5.00,000.00,019.4,018.9,000.0,027.9,021.2,023.2,0001.8,0009.62,0007.33,0006.96
2024-04-21 04:48:00,SystemResetWarning,0838.0,5.00,000.00,019.4,018.9,000.0,027.9,021.1,023.2,0002.0,0009.62,0007.32,0006.95
2024-04-21 04:49:00,SystemResetWarning,0838.0,5.00,000.00,019.4,018.9,000.0,027.9,021.1,023.2,0001.9,0009.64,0007.31,0006.95
2024-04-21 04:50:00,SystemResetWarning,0838.0,4.99,000.00,019.4,018.9,000.0,027.9,021.2,023.2,0001.9,0009.73,0007.35,0006.97
2024-04-21 04:51:00,SystemResetWarning,0838.1,5.00,000.00,019.4,018.8,000.0,027.9,021.1,023.2,0002.1,0009.73,0007.37,0007.00
2024-04-21 04:52:00,SystemResetWarning,0838.0,4.99,000.00,019.4,018.8,000.0,027.9,021.1,023.2,0002.3,0009.72,0007.39,0007.03
2024-04-21 04:53:00,SystemResetWarning,0838.0,5.00,000.00,019.4,018.8,000.0,027.9,021.1,023.2,0002.3,0009.74,0007.39,0007.03
2024-04-21 04:54:00,SystemResetWarning,0838.0,5.00,000.00,019.4,018.8,000.0,027.9,021.1,023.2,0002.3,0009.83,0007.42,0007.03
2024-04-21 04:55:00,SystemResetWarning,0838.1,5.01,000.00,019.4,018.8,000.0,027.9,021.1,023.2,0002.2,0009.92,0007.45,0007.05
2024-04-21 04:56:00,SystemResetWarning,0838.2,5.00,000.00,019.4,018.8,000.0,027.9,021.1,023.2,0002.2,0010.49,0007.45,0007.07
2024-04-21 04:57:00,SystemResetWarning,0838.2,4.99,000.00,019.4,018.8,000.0,027.9,021.1,023.2,0002.0,0010.46,0007.43,0007.06
2024-04-21 04:58:00,SystemResetWarning,0838.1,4.99,000.00,019.4,018.8,000.0,027.9,021.1,023.2,0001.6,0010.43,0007.42,0007.06
2024-04-21 04:59:00,SystemResetWarning,0838.2,5.00,000.00,019.4,018.8,000.0,027.9,021.1,023.2,0001.8,0010.45,0007.44,0007.08
